,,PA_Meas_PMT16A,,PR_Meas_QMR101_102,,RH_Meas_QMH101,,SR_Meas_QMS101,,TA_Meas_QMH101,,GenWind,,GenWind,
time,status,PA,status,PR,status,RH,status,SR,status,TA,status,DirAvg,status,SpdAvg,
2016-09-02, 14:08:04,VALID,918.945,VALID,0,INVALID,113.147,VALID,104.863,VALID,18.8658,VALID,137,VALID,1.81992,
2016-09-02, 14:10:04,VALID,918.958,VALID,0,INVALID,113.223,VALID,111.094,VALID,18.8463,VALID,161,VALID,1.61563,
2016-09-02, 14:11:04,VALID,918.979,VALID,0,INVALID,113.261,VALID,115.177,VALID,18.8463,VALID,158,VALID,1.45703,
2016-09-02, 14:12:04,VALID,918.944,VALID,0,INVALID,113.276,VALID,119.26,VALID,18.8268,VALID,163,VALID,1.52539,
2016-09-02, 14:13:04,VALID,918.948,VALID,0,INVALID,113.322,VALID,124.202,VALID,18.8477,VALID,158,VALID,1.38125,
2016-09-02, 14:14:04,VALID,918.979,VALID,0,INVALID,113.322,VALID,127.318,VALID,18.8268,VALID,164,VALID,0.690234,
2016-09-02, 14:15:04,VALID,918.968,VALID,0,INVALID,113.284,VALID,131.83,VALID,18.9243,VALID,165,VALID,0,
2016-09-02, 14:16:04,VALID,918.986,VALID,0,INVALID,113.223,VALID,137.095,VALID,18.9633,VALID,165,VALID,0,
2016-09-02, 14:17:04,VALID,918.995,VALID,0,INVALID,113.185,VALID,141.5,VALID,19.0232,VALID,216,VALID,0.0980469,
2016-09-02, 14:18:04,VALID,919.061,VALID,0,INVALID,113.33,VALID,143.112,VALID,18.9438,VALID,231,VALID,0.0386719,
2016-09-02, 14:19:04,VALID,919.035,VALID,0,INVALID,113.368,VALID,146.872,VALID,18.9452,VALID,274,VALID,0,
2016-09-02, 14:20:04,VALID,919.104,VALID,0,INVALID,113.391,VALID,151.385,VALID,18.9438,VALID,280,VALID,0.632813,
2016-09-02, 14:21:04,VALID,919.137,VALID,0,INVALID,113.391,VALID,150.31,VALID,18.9633,VALID,272,VALID,0.669922,
2016-09-02, 14:22:04,VALID,919.154,VALID,0,INVALID,113.429,VALID,155.897,VALID,18.9438,VALID,272,VALID,0,
2016-09-02, 14:23:04,VALID,919.124,VALID,0,INVALID,113.414,VALID,162.558,VALID,19.0023,VALID,272,VALID,0,
2016-09-02, 14:24:04,VALID,919.138,VALID,0,INVALID,113.444,VALID,167.716,VALID,19.0413,VALID,272,VALID,0,
2016-09-02, 14:25:04,VALID,919.167,VALID,0,INVALID,113.421,VALID,171.906,VALID,19.0803,VALID,272,VALID,0,
2016-09-02, 14:26:04,VALID,919.167,VALID,0,INVALID,113.36,VALID,177.063,VALID,19.1778,VALID,272,VALID,0,
2016-09-02, 14:27:04,VALID,919.184,VALID,0,INVALID,113.299,VALID,180.609,VALID,19.2948,VALID,272,VALID,0,
2016-09-02, 14:28:04,VALID,919.203,VALID,0,INVALID,113.215,VALID,163.203,VALID,19.4103,VALID,272,VALID,0,
2016-09-02, 14:29:04,VALID,919.242,VALID,0,INVALID,113.162,VALID,141.393,VALID,19.5093,VALID,272,VALID,0,
2016-09-02, 14:30:04,VALID,919.229,VALID,0,INVALID,113.215,VALID,146.55,VALID,19.5678,VALID,272,VALID,0,
2016-09-02, 14:31:04,VALID,919.248,VALID,0,INVALID,113.314,VALID,147.839,VALID,19.5468,VALID,272,VALID,0,
2016-09-02, 14:32:04,VALID,919.252,VALID,0,INVALID,113.459,VALID,130.326,VALID,19.5678,VALID,272,VALID,0,
2016-09-02, 14:33:04,VALID,919.259,VALID,0,INVALID,113.597,VALID,121.946,VALID,19.5483,VALID,272,VALID,0,
2016-09-02, 14:34:04,VALID,919.273,VALID,0,INVALID,113.627,VALID,131.938,VALID,19.5858,VALID,272,VALID,0,
2016-09-02, 14:35:04,VALID,919.312,VALID,0,INVALID,113.711,VALID,142.789,VALID,19.6248,VALID,272,VALID,0,
2016-09-02, 14:36:04,VALID,919.312,VALID,0,INVALID,113.825,VALID,164.278,VALID,19.6053,VALID,274,VALID,0,
2016-09-02, 14:37:04,VALID,919.293,VALID,0,INVALID,113.924,VALID,164.063,VALID,19.6443,VALID,274,VALID,0,
2016-09-02, 14:38:04,VALID,919.33,VALID,0,INVALID,113.894,VALID,180.823,VALID,19.7418,VALID,275,VALID,0,
2016-09-02, 14:39:04,VALID,919.334,VALID,0,INVALID,114.069,VALID,185.766,VALID,19.7808,VALID,340,VALID,0,
2016-09-02, 14:40:04,VALID,919.332,VALID,0,INVALID,114.153,VALID,184.262,VALID,19.8408,VALID,353,VALID,0,
2016-09-02, 14:41:04,VALID,919.371,VALID,0,INVALID,114.199,VALID,185.121,VALID,19.8993,VALID,353,VALID,0,
2016-09-02, 14:42:04,VALID,919.323,VALID,0,INVALID,114.214,VALID,192.427,VALID,19.9563,VALID,354,VALID,0,
2016-09-02, 14:43:04,VALID,919.355,VALID,0,INVALID,114.313,VALID,187.485,VALID,19.9968,VALID,318,VALID,0.261328,
2016-09-02, 14:44:04,VALID,919.372,VALID,0,INVALID,114.74,VALID,185.443,VALID,19.8603,VALID,305,VALID,0.986719,
2016-09-02, 14:45:04,VALID,919.364,VALID,0,INVALID,114.976,VALID,177.385,VALID,19.7628,VALID,296,VALID,0.0625,
2016-09-02, 14:46:04,VALID,919.385,VALID,0,INVALID,115.159,VALID,185.443,VALID,19.6638,VALID,295,VALID,0,
2016-09-02, 14:47:04,VALID,919.378,VALID,0,INVALID,115.358,VALID,186.303,VALID,19.5663,VALID,289,VALID,0,
2016-09-02, 14:48:04,VALID,919.401,VALID,0,INVALID,115.388,VALID,179.534,VALID,19.5483,VALID,289,VALID,0,
2016-09-02, 14:49:04,VALID,919.378,VALID,0,INVALID,115.411,VALID,182.435,VALID,19.5273,VALID,289,VALID,0,
2016-09-02, 14:50:04,VALID,919.361,VALID,0,INVALID,115.48,VALID,178.997,VALID,19.5678,VALID,289,VALID,0,
2016-09-02, 14:51:04,VALID,919.375,VALID,0,INVALID,115.754,VALID,204.138,VALID,19.5288,VALID,289,VALID,0,
2016-09-02, 14:52:04,VALID,919.398,VALID,0,INVALID,115.739,VALID,213.593,VALID,19.5468,VALID,290,VALID,0,
2016-09-02, 14:53:04,VALID,919.353,VALID,0,INVALID,115.716,VALID,216.601,VALID,19.6443,VALID,289,VALID,0,
2016-09-02, 14:54:04,VALID,919.372,VALID,0,INVALID,115.754,VALID,215.849,VALID,19.7223,VALID,289,VALID,0,
2016-09-02, 14:55:04,VALID,919.362,VALID,0,INVALID,115.777,VALID,217.676,VALID,19.8018,VALID,289,VALID,0,
2016-09-02, 14:56:04,VALID,919.351,VALID,0,INVALID,115.838,VALID,225.519,VALID,19.8588,VALID,289,VALID,0,
2016-09-02, 14:57:04,VALID,919.343,VALID,0,INVALID,116.249,VALID,226.593,VALID,19.8003,VALID,290,VALID,0,
2016-09-02, 14:58:04,VALID,919.304,VALID,0,INVALID,116.623,VALID,231.643,VALID,19.7223,VALID,289,VALID,0,
2016-09-02, 14:59:04,VALID,919.332,VALID,0,INVALID,116.722,VALID,236.263,VALID,19.7418,VALID,289,VALID,0,
2016-09-02, 15:00:04,VALID,919.309,VALID,0,INVALID,116.707,VALID,242.28,VALID,19.8393,VALID,290,VALID,0,
2016-09-02, 15:01:04,VALID,919.292,VALID,0,INVALID,116.852,VALID,245.396,VALID,19.9158,VALID,320,VALID,0,
2016-09-02, 15:02:04,VALID,919.321,VALID,0,INVALID,116.913,VALID,250.553,VALID,20.0538,VALID,348,VALID,0,
2016-09-02, 15:03:04,VALID,919.33,VALID,0,INVALID,116.928,VALID,258.289,VALID,20.2098,VALID,348,VALID,0,
2016-09-02, 15:04:04,VALID,919.338,VALID,0,INVALID,116.951,VALID,269.785,VALID,20.3854,VALID,348,VALID,0,
2016-09-02, 15:05:04,VALID,919.315,VALID,0,INVALID,117.202,VALID,273.33,VALID,20.5009,VALID,10,VALID,0,
2016-09-02, 15:06:04,VALID,919.308,VALID,0,INVALID,117.545,VALID,267.314,VALID,20.678,VALID,19,VALID,0,
2016-09-02, 15:07:04,VALID,919.347,VALID,0,INVALID,118.201,VALID,263.016,VALID,20.7154,VALID,20,VALID,1.46719,
2016-09-02, 15:08:04,VALID,919.326,VALID,0,INVALID,118.628,VALID,270,VALID,20.6764,VALID,19,VALID,0.888281,
2016-09-02, 15:09:04,VALID,919.362,VALID,0,INVALID,118.498,VALID,269.892,VALID,20.6959,VALID,15,VALID,0,
2016-09-02, 15:10:04,VALID,919.366,VALID,0,INVALID,118.178,VALID,279.132,VALID,20.756,VALID,21,VALID,0,
2016-09-02, 15:11:04,VALID,919.365,VALID,0,INVALID,117.797,VALID,281.603,VALID,20.795,VALID,32,VALID,0,
2016-09-02, 15:12:04,VALID,919.358,VALID,0,INVALID,117.439,VALID,279.562,VALID,20.8535,VALID,19,VALID,0,
2016-09-02, 15:13:04,VALID,919.341,VALID,0,INVALID,116.89,VALID,282.785,VALID,20.8519,VALID,9,VALID,0,
2016-09-02, 15:14:04,VALID,919.379,VALID,0,INVALID,116.829,VALID,314.05,VALID,20.9511,VALID,25,VALID,0,
2016-09-02, 15:15:04,VALID,919.382,VALID,0,INVALID,115.487,VALID,325.762,VALID,20.912,VALID,35,VALID,0,
2016-09-02, 15:16:04,VALID,919.346,VALID,0,INVALID,114.572,VALID,342.2,VALID,20.9316,VALID,13,VALID,1.01523,
2016-09-02, 15:17:04,VALID,919.389,VALID,0,INVALID,115.091,VALID,353.267,VALID,20.9511,VALID,17,VALID,1.28867,
2016-09-02, 15:18:04,VALID,919.427,VALID,0,INVALID,114.854,VALID,360.035,VALID,21.008,VALID,357,VALID,0,
2016-09-02, 15:19:04,VALID,919.419,VALID,0,INVALID,113.901,VALID,361.969,VALID,21.0876,VALID,17,VALID,1.59648,
2016-09-02, 15:20:04,VALID,919.407,VALID,0,INVALID,110.692,VALID,362.184,VALID,21.1055,VALID,29,VALID,1.88437,
2016-09-02, 15:21:04,VALID,919.405,VALID,0,INVALID,114.839,VALID,340.159,VALID,21.2616,VALID,34,VALID,1.50391,
2016-09-02, 15:22:04,VALID,919.418,VALID,0,INVALID,114.717,VALID,363.473,VALID,21.3981,VALID,7,VALID,1.36133,
2016-09-02, 15:23:04,VALID,919.447,VALID,0,INVALID,114.168,VALID,360.035,VALID,21.6534,VALID,9,VALID,0.278125,
2016-09-02, 15:24:04,VALID,919.417,VALID,0,VALID,96.2456,VALID,354.341,VALID,21.7103,VALID,45,VALID,0,
2016-09-02, 15:25:04,VALID,919.437,VALID,0,VALID,95.773,VALID,338.655,VALID,21.8469,VALID,18,VALID,0.00585938,
2016-09-02, 15:26:04,VALID,919.443,VALID,0,VALID,94.4084,VALID,321.356,VALID,21.8469,VALID,30,VALID,0,
2016-09-02, 15:27:04,VALID,919.407,VALID,0,VALID,96.116,VALID,309.216,VALID,21.8079,VALID,49,VALID,0,
2016-09-02, 15:28:04,VALID,919.433,VALID,0,VALID,89.537,VALID,299.546,VALID,21.8079,VALID,45,VALID,2.07344,
2016-09-02, 15:29:04,VALID,919.461,VALID,0,VALID,88.7899,VALID,294.389,VALID,21.6713,VALID,24,VALID,1.275,
2016-09-02, 15:30:04,VALID,919.464,VALID,0,VALID,96.2761,VALID,299.976,VALID,21.6306,VALID,47,VALID,1.25977,
2016-09-02, 15:31:04,VALID,919.469,VALID,0,VALID,89.415,VALID,308.571,VALID,21.5314,VALID,55,VALID,1.7043,
2016-09-02, 15:32:04,VALID,919.478,VALID,0,VALID,89.5523,VALID,313.298,VALID,21.5136,VALID,39,VALID,0.974609,
2016-09-02, 15:33:04,VALID,919.483,VALID,0,VALID,94.5761,VALID,312.117,VALID,21.5136,VALID,51,VALID,0.296875,
2016-09-02, 15:34:04,VALID,919.496,VALID,0,VALID,104,VALID,331.134,VALID,21.5721,VALID,43,VALID,0,
2016-09-02, 15:35:04,VALID,919.483,VALID,0,VALID,92.007,VALID,338.225,VALID,21.6095,VALID,13,VALID,0.233984,
2016-09-02, 15:36:04,VALID,919.506,VALID,0,VALID,104,VALID,347.357,VALID,21.7655,VALID,21,VALID,0.115234,
2016-09-02, 15:37:04,VALID,919.495,VALID,0,VALID,88.02,VALID,352.407,VALID,21.8436,VALID,15,VALID,1.24805,
2016-09-02, 15:38:04,VALID,919.492,VALID,0,VALID,87.593,VALID,357.994,VALID,21.8045,VALID,11,VALID,1.40937,
2016-09-02, 15:39:04,VALID,919.541,VALID,0,VALID,94.0196,VALID,355.953,VALID,21.8062,VALID,17,VALID,0.786719,
2016-09-02, 15:40:04,VALID,919.548,VALID,0,VALID,100.812,VALID,359.713,VALID,21.8045,VALID,351,VALID,0.0226563,
2016-09-02, 15:41:04,VALID,919.589,VALID,0,VALID,97.7017,VALID,368.631,VALID,21.9038,VALID,23,VALID,0.467187,
2016-09-02, 15:42:04,VALID,919.614,VALID,0,VALID,90.5128,VALID,376.044,VALID,21.9801,VALID,18,VALID,0.0078125,
2016-09-02, 15:43:04,VALID,919.562,VALID,0,VALID,90.2689,VALID,379.482,VALID,22.1184,VALID,18,VALID,0,
2016-09-02, 15:44:04,VALID,919.6,VALID,0,VALID,97.1986,VALID,384.747,VALID,22.2745,VALID,358,VALID,0.0195313,
2016-09-02, 15:45:04,VALID,919.611,VALID,0,VALID,93.2039,VALID,389.904,VALID,22.4696,VALID,39,VALID,0,
2016-09-02, 15:46:04,VALID,919.593,VALID,0,VALID,86.4724,VALID,385.391,VALID,22.6452,VALID,47,VALID,0.0121094,
2016-09-02, 15:47:04,VALID,919.549,VALID,0,VALID,83.3773,VALID,385.821,VALID,22.7428,VALID,26,VALID,0.130469,
2016-09-02, 15:48:04,VALID,919.563,VALID,0,VALID,83.8576,VALID,390.119,VALID,22.7233,VALID,19,VALID,0.773828,
2016-09-02, 15:49:04,VALID,919.574,VALID,0,VALID,84.2616,VALID,410.748,VALID,22.7606,VALID,340,VALID,0.472266,
2016-09-02, 15:50:04,VALID,919.559,VALID,0,VALID,84.0024,VALID,422.888,VALID,22.7233,VALID,16,VALID,0,
2016-09-02, 15:51:04,VALID,919.551,VALID,0,VALID,84.3226,VALID,431.269,VALID,22.7801,VALID,38,VALID,0,
2016-09-02, 15:52:04,VALID,919.571,VALID,0,VALID,81.5934,VALID,430.409,VALID,22.9185,VALID,292,VALID,0,
2016-09-02, 15:53:04,VALID,919.534,VALID,0,VALID,82.31,VALID,442.98,VALID,22.9185,VALID,294,VALID,0,
2016-09-02, 15:54:04,VALID,919.567,VALID,0,VALID,82.371,VALID,446.096,VALID,22.9557,VALID,292,VALID,0,
2016-09-02, 15:55:04,VALID,919.587,VALID,0,VALID,82.1042,VALID,468.336,VALID,23.1314,VALID,23,VALID,0,
2016-09-02, 15:56:04,VALID,919.576,VALID,0,VALID,79.497,VALID,460.063,VALID,23.3461,VALID,295,VALID,0,
2016-09-02, 15:57:04,VALID,919.604,VALID,0,VALID,78.4831,VALID,476.931,VALID,23.268,VALID,311,VALID,0,
2016-09-02, 15:58:04,VALID,919.63,VALID,0,VALID,80.6252,VALID,477.576,VALID,23.0728,VALID,315,VALID,0,
2016-09-02, 15:59:04,VALID,919.636,VALID,0,VALID,80.5643,VALID,478.435,VALID,23.0321,VALID,307,VALID,0,
2016-09-02, 16:00:04,VALID,919.652,VALID,0,VALID,82.493,VALID,454.906,VALID,23.1899,VALID,306,VALID,0,
2016-09-02, 16:01:04,VALID,919.669,VALID,0,VALID,80.206,VALID,418.483,VALID,23.4224,VALID,277,VALID,0,
2016-09-02, 16:02:04,VALID,919.706,VALID,0,VALID,77.1871,VALID,475.535,VALID,23.6193,VALID,262,VALID,0,
2016-09-02, 16:03:04,VALID,919.697,VALID,0,VALID,75.5709,VALID,491.758,VALID,23.7737,VALID,273,VALID,0,
2016-09-02, 16:04:04,VALID,919.707,VALID,0,VALID,73.1543,VALID,473.171,VALID,23.9335,VALID,272,VALID,0,
2016-09-02, 16:05:04,VALID,919.73,VALID,0,VALID,70.7987,VALID,448.137,VALID,24.0097,VALID,273,VALID,0,
2016-09-02, 16:06:04,VALID,919.76,VALID,0,VALID,72.2624,VALID,435.889,VALID,23.9316,VALID,273,VALID,0,
2016-09-02, 16:07:04,VALID,919.75,VALID,0,VALID,74.8467,VALID,402.475,VALID,23.8163,VALID,335,VALID,0,
2016-09-02, 16:08:04,VALID,919.766,VALID,0,VALID,72.9027,VALID,433.418,VALID,23.7755,VALID,287,VALID,0,
2016-09-02, 16:09:04,VALID,919.772,VALID,0,VALID,72.3157,VALID,467.906,VALID,23.8536,VALID,288,VALID,0,
2016-09-02, 16:10:04,VALID,919.788,VALID,0,VALID,70.8292,VALID,498.419,VALID,23.795,VALID,307,VALID,0,
2016-09-02, 16:11:04,VALID,919.816,VALID,0,VALID,73.4669,VALID,485.527,VALID,23.756,VALID,3,VALID,0,
2016-09-02, 16:12:04,VALID,919.831,VALID,0,VALID,71.3171,VALID,530.115,VALID,23.8536,VALID,276,VALID,0,
2016-09-02, 16:13:04,VALID,919.859,VALID,0,VALID,70.7605,VALID,534.197,VALID,23.8517,VALID,266,VALID,0,
2016-09-02, 16:14:04,VALID,919.869,VALID,0,VALID,71.0502,VALID,528.396,VALID,23.7755,VALID,277,VALID,0,
2016-09-02, 16:15:04,VALID,919.877,VALID,0,VALID,71.8126,VALID,532.478,VALID,23.8127,VALID,291,VALID,0,
2016-09-02, 16:16:04,VALID,919.871,VALID,0,VALID,72.8036,VALID,520.445,VALID,23.8127,VALID,297,VALID,0,
2016-09-02, 16:17:04,VALID,919.891,VALID,0,VALID,74.4808,VALID,515.18,VALID,23.9298,VALID,359,VALID,0,
2016-09-02, 16:18:04,VALID,919.841,VALID,0,VALID,71.1493,VALID,499.064,VALID,24.0274,VALID,11,VALID,0,
2016-09-02, 16:19:04,VALID,919.854,VALID,0,VALID,72.5749,VALID,504.329,VALID,24.0665,VALID,357,VALID,0,
2016-09-02, 16:20:04,VALID,919.819,VALID,0,VALID,72.8494,VALID,529.04,VALID,24.2421,VALID,32,VALID,0,
2016-09-02, 16:21:04,VALID,919.814,VALID,0,VALID,70.6919,VALID,517.114,VALID,24.4569,VALID,114,VALID,0,
2016-09-02, 16:22:04,VALID,919.825,VALID,0,VALID,72.0413,VALID,534.305,VALID,24.535,VALID,119,VALID,0,
2016-09-02, 16:23:04,VALID,919.837,VALID,0,VALID,68.1152,VALID,528.61,VALID,24.4959,VALID,291,VALID,0,
2016-09-02, 16:24:04,VALID,919.832,VALID,0,VALID,68.8242,VALID,530.544,VALID,24.3983,VALID,294,VALID,0,
2016-09-02, 16:25:04,VALID,919.855,VALID,0,VALID,72.0489,VALID,503.039,VALID,24.4764,VALID,297,VALID,0,
2016-09-02, 16:26:04,VALID,919.861,VALID,0,VALID,71.3094,VALID,521.627,VALID,24.6521,VALID,311,VALID,0,
2016-09-02, 16:27:04,VALID,919.813,VALID,0,VALID,70.7682,VALID,525.387,VALID,24.6893,VALID,279,VALID,0,
2016-09-02, 16:28:04,VALID,919.842,VALID,0,VALID,71.0274,VALID,533.66,VALID,24.7283,VALID,279,VALID,0,
2016-09-02, 16:29:04,VALID,919.819,VALID,0,VALID,69.7543,VALID,546.983,VALID,24.8064,VALID,278,VALID,0,
2016-09-02, 16:30:04,VALID,919.851,VALID,0,VALID,69.4569,VALID,540.536,VALID,24.9626,VALID,278,VALID,0,
2016-09-02, 16:31:04,VALID,919.834,VALID,0,VALID,68.3744,VALID,542.041,VALID,25.1169,VALID,280,VALID,0,
2016-09-02, 16:32:04,VALID,919.803,VALID,0,VALID,67.9704,VALID,561.81,VALID,25.3336,VALID,359,VALID,0,
2016-09-02, 16:33:04,VALID,919.812,VALID,0,VALID,66.8345,VALID,575.885,VALID,25.4507,VALID,348,VALID,0,
2016-09-02, 16:34:04,VALID,919.791,VALID,0,VALID,66.1026,VALID,590.282,VALID,25.5679,VALID,348,VALID,0,
2016-09-02, 16:35:04,VALID,919.775,VALID,0,VALID,66.2627,VALID,592.86,VALID,25.6441,VALID,360,VALID,0,
2016-09-02, 16:36:04,VALID,919.797,VALID,0,VALID,64.9972,VALID,592.001,VALID,25.6245,VALID,319,VALID,0,
2016-09-02, 16:37:04,VALID,919.758,VALID,0,VALID,66.278,VALID,593.827,VALID,25.5113,VALID,291,VALID,0,
2016-09-02, 16:38:04,VALID,919.744,VALID,0,VALID,68.4964,VALID,599.414,VALID,25.3141,VALID,338,VALID,0,
2016-09-02, 16:39:04,VALID,919.705,VALID,0,VALID,70.0363,VALID,601.67,VALID,25.3336,VALID,359,VALID,0,
2016-09-02, 16:40:04,VALID,919.688,VALID,0,VALID,67.5968,VALID,583.62,VALID,25.3531,VALID,303,VALID,0,
2016-09-02, 16:41:04,VALID,919.666,VALID,0,VALID,68.0085,VALID,592.645,VALID,25.2164,VALID,279,VALID,0,
2016-09-02, 16:42:04,VALID,919.636,VALID,0,VALID,69.2816,VALID,612.737,VALID,25.0602,VALID,266,VALID,0,
2016-09-02, 16:43:04,VALID,919.609,VALID,0,VALID,68.3668,VALID,615.423,VALID,25.0388,VALID,266,VALID,0,
2016-09-02, 16:44:04,VALID,919.614,VALID,0,VALID,69.6399,VALID,619.183,VALID,25.0212,VALID,307,VALID,0,
2016-09-02, 16:45:04,VALID,919.608,VALID,0,VALID,70.448,VALID,624.77,VALID,24.9626,VALID,268,VALID,0,
2016-09-02, 16:46:04,VALID,919.557,VALID,0,VALID,70.0363,VALID,627.349,VALID,24.9431,VALID,273,VALID,0,
2016-09-02, 16:47:04,VALID,919.527,VALID,0,VALID,72.5825,VALID,633.795,VALID,24.9607,VALID,343,VALID,0,
2016-09-02, 16:48:04,VALID,919.567,VALID,0,VALID,67.8103,VALID,633.58,VALID,25.0407,VALID,311,VALID,0,
2016-09-02, 16:49:04,VALID,919.572,VALID,0,VALID,70.7301,VALID,636.589,VALID,25.0778,VALID,321,VALID,0,
2016-09-02, 16:50:04,VALID,919.549,VALID,0,VALID,67.9856,VALID,638.415,VALID,25.236,VALID,303,VALID,0,
2016-09-02, 16:51:04,VALID,919.568,VALID,0,VALID,68.5345,VALID,638.738,VALID,25.2926,VALID,266,VALID,0,
2016-09-02, 16:52:04,VALID,919.514,VALID,0,VALID,67.7569,VALID,638.308,VALID,25.5289,VALID,261,VALID,0,
2016-09-02, 16:53:04,VALID,919.517,VALID,0,VALID,69.3426,VALID,641.746,VALID,25.6831,VALID,285,VALID,0,
2016-09-02, 16:54:04,VALID,919.533,VALID,0,VALID,66.1865,VALID,644.862,VALID,25.9174,VALID,315,VALID,0,
2016-09-02, 16:55:04,VALID,919.548,VALID,0,VALID,67.2995,VALID,648.407,VALID,25.8979,VALID,230,VALID,0,
2016-09-02, 16:56:04,VALID,919.549,VALID,0,VALID,67.3681,VALID,642.606,VALID,25.6812,VALID,236,VALID,0,
2016-09-02, 16:57:04,VALID,919.557,VALID,0,VALID,66.0035,VALID,638.845,VALID,25.4098,VALID,248,VALID,0.305859,
2016-09-02, 16:58:04,VALID,919.547,VALID,0,VALID,67.7798,VALID,613.489,VALID,24.9802,VALID,250,VALID,0,
2016-09-02, 16:59:04,VALID,919.541,VALID,0,VALID,70.9588,VALID,649.804,VALID,24.7869,VALID,251,VALID,0.141016,
2016-09-02, 17:00:04,VALID,919.53,VALID,0,VALID,71.5839,VALID,653.672,VALID,24.5722,VALID,234,VALID,0,
2016-09-02, 17:01:04,VALID,919.51,VALID,0,VALID,73.8252,VALID,660.978,VALID,24.6112,VALID,295,VALID,0,
2016-09-02, 17:02:04,VALID,919.521,VALID,0,VALID,70.6996,VALID,666.78,VALID,24.7283,VALID,308,VALID,0,
2016-09-02, 17:03:04,VALID,919.473,VALID,0,VALID,70.631,VALID,670.218,VALID,24.8064,VALID,276,VALID,0,
2016-09-02, 17:04:04,VALID,919.484,VALID,0,VALID,70.7682,VALID,673.763,VALID,24.7655,VALID,262,VALID,0,
2016-09-02, 17:05:04,VALID,919.466,VALID,0,VALID,70.0135,VALID,674.838,VALID,24.8064,VALID,249,VALID,0,
2016-09-02, 17:06:04,VALID,919.503,VALID,0,VALID,70.8596,VALID,676.879,VALID,24.8455,VALID,244,VALID,0,
2016-09-02, 17:07:04,VALID,919.475,VALID,0,VALID,71.7668,VALID,682.251,VALID,24.8064,VALID,263,VALID,0,
2016-09-02, 17:08:04,VALID,919.482,VALID,0,VALID,70.4556,VALID,684.615,VALID,24.8631,VALID,252,VALID,0,
2016-09-02, 17:09:04,VALID,919.499,VALID,0,VALID,70.2574,VALID,686.012,VALID,24.8845,VALID,236,VALID,0,
2016-09-02, 17:10:04,VALID,919.469,VALID,0,VALID,73.1619,VALID,691.491,VALID,24.904,VALID,260,VALID,0,
2016-09-02, 17:11:04,VALID,919.497,VALID,0,VALID,73.6727,VALID,695.681,VALID,25.0993,VALID,277,VALID,0,
2016-09-02, 17:12:04,VALID,919.458,VALID,0,VALID,69.617,VALID,700.194,VALID,25.3141,VALID,273,VALID,0,
2016-09-02, 17:13:04,VALID,919.445,VALID,0,VALID,70.448,VALID,700.516,VALID,25.3726,VALID,240,VALID,0,
2016-09-02, 17:14:04,VALID,919.469,VALID,0,VALID,69.9906,VALID,702.235,VALID,25.4683,VALID,263,VALID,0,
2016-09-02, 17:15:04,VALID,919.442,VALID,0,VALID,67.2538,VALID,706.318,VALID,25.3531,VALID,279,VALID,0.0289063,
2016-09-02, 17:16:04,VALID,919.417,VALID,0,VALID,72.2929,VALID,710.079,VALID,25.3531,VALID,263,VALID,0,
2016-09-02, 17:17:04,VALID,919.403,VALID,0,VALID,68.8394,VALID,708.574,VALID,25.3317,VALID,304,VALID,0,
2016-09-02, 17:18:04,VALID,919.391,VALID,0,VALID,68.9919,VALID,710.079,VALID,25.3512,VALID,261,VALID,0,
2016-09-02, 17:19:04,VALID,919.386,VALID,0,VALID,69.1444,VALID,710.186,VALID,25.4507,VALID,259,VALID,0,
2016-09-02, 17:20:04,VALID,919.373,VALID,0,VALID,68.9995,VALID,715.128,VALID,25.4879,VALID,257,VALID,0,
2016-09-02, 17:21:04,VALID,919.376,VALID,0,VALID,69.3807,VALID,715.88,VALID,25.6851,VALID,287,VALID,0,
2016-09-02, 17:22:04,VALID,919.409,VALID,0,VALID,70.0439,VALID,720.93,VALID,25.7632,VALID,238,VALID,0,
2016-09-02, 17:23:04,VALID,919.383,VALID,0,VALID,68.8776,VALID,726.302,VALID,25.7241,VALID,240,VALID,0,
2016-09-02, 17:24:04,VALID,919.38,VALID,0,VALID,68.8013,VALID,725.55,VALID,25.5093,VALID,248,VALID,0.435547,
2016-09-02, 17:25:04,VALID,919.349,VALID,0,VALID,69.8457,VALID,727.806,VALID,25.3121,VALID,287,VALID,0,
2016-09-02, 17:26:04,VALID,919.335,VALID,0,VALID,69.1977,VALID,729.203,VALID,25.3317,VALID,257,VALID,0.230469,
2016-09-02, 17:27:04,VALID,919.316,VALID,0,VALID,70.9054,VALID,730.707,VALID,25.1969,VALID,255,VALID,0,
2016-09-02, 17:28:04,VALID,919.307,VALID,0,VALID,72.2395,VALID,731.245,VALID,25.1169,VALID,342,VALID,0,
2016-09-02, 17:29:04,VALID,919.278,VALID,0,VALID,71.8354,VALID,734.897,VALID,25.3726,VALID,339,VALID,0,
2016-09-02, 17:30:04,VALID,919.268,VALID,0,VALID,69.7314,VALID,736.831,VALID,25.5874,VALID,354,VALID,0.0605469,
2016-09-02, 17:31:04,VALID,919.252,VALID,0,VALID,66.5982,VALID,738.55,VALID,25.5855,VALID,306,VALID,0.752734,
2016-09-02, 17:32:04,VALID,919.239,VALID,0,VALID,69.6856,VALID,740.377,VALID,25.3902,VALID,319,VALID,0.433203,
2016-09-02, 17:33:04,VALID,919.207,VALID,0,VALID,69.1596,VALID,738.55,VALID,25.1755,VALID,309,VALID,0.0316406,
2016-09-02, 17:34:04,VALID,919.189,VALID,0,VALID,68.4735,VALID,733.178,VALID,25.1559,VALID,298,VALID,0.371875,
2016-09-02, 17:35:04,VALID,919.141,VALID,0,VALID,71.9727,VALID,737.798,VALID,25.1559,VALID,332,VALID,0,
2016-09-02, 17:36:04,VALID,919.136,VALID,0,VALID,67.5435,VALID,739.732,VALID,25.2926,VALID,355,VALID,0.372656,
2016-09-02, 17:37:04,VALID,919.104,VALID,0,VALID,69.335,VALID,744.567,VALID,25.3493,VALID,236,VALID,0,
2016-09-02, 17:38:04,VALID,919.106,VALID,0,VALID,71.4467,VALID,746.823,VALID,25.5464,VALID,244,VALID,0,
2016-09-02, 17:39:04,VALID,919.097,VALID,0,VALID,67.574,VALID,749.08,VALID,25.7417,VALID,222,VALID,0,
2016-09-02, 17:40:04,VALID,919.073,VALID,0,VALID,67.795,VALID,754.882,VALID,26.0151,VALID,355,VALID,0,
2016-09-02, 17:41:04,VALID,919.068,VALID,0,VALID,64.4407,VALID,755.204,VALID,26.2299,VALID,315,VALID,0,
2016-09-02, 17:42:04,VALID,919.053,VALID,0,VALID,64.5627,VALID,755.096,VALID,26.1127,VALID,306,VALID,0,
2016-09-02, 17:43:04,VALID,919.017,VALID,0,VALID,65.2336,VALID,753.485,VALID,26.1518,VALID,259,VALID,0,
2016-09-02, 17:44:04,VALID,919.022,VALID,0,VALID,62.2757,VALID,755.526,VALID,26.0541,VALID,247,VALID,1.00586,
2016-09-02, 17:45:04,VALID,918.984,VALID,0,VALID,64.273,VALID,751.443,VALID,25.8569,VALID,235,VALID,0,
2016-09-02, 17:46:04,VALID,918.972,VALID,0,VALID,67.2309,VALID,744.46,VALID,26.0346,VALID,270,VALID,0,
2016-09-02, 17:47:04,VALID,918.967,VALID,0,VALID,64.5322,VALID,736.509,VALID,26.1908,VALID,283,VALID,0,
2016-09-02, 17:48:04,VALID,918.931,VALID,0,VALID,66.5143,VALID,763.154,VALID,26.1713,VALID,3,VALID,0.00976563,
2016-09-02, 17:49:04,VALID,918.935,VALID,0,VALID,67.4901,VALID,766.7,VALID,26.3666,VALID,21,VALID,0.0417969,
2016-09-02, 17:50:04,VALID,918.909,VALID,0,VALID,61.0941,VALID,766.27,VALID,26.4252,VALID,22,VALID,0.00703125,
2016-09-02, 17:51:04,VALID,918.914,VALID,0,VALID,64.8829,VALID,769.171,VALID,26.3256,VALID,292,VALID,0,